Regional Weather Roundup
Issued by NWS Sioux Falls, SD

Home | Current Version | Previous Version | Graphics & Text | Print | Product List | Glossary Off
Versions: 1 2 3 4 5 6 7 8 9 10 11 12 13 14 15 16 17 18 19 20 21 22 23 24 25 26 27 28 29 30 31 32 33 34 35 36 37 38 39 40 41 42 43 44 45 46 47 48 49 50

000
ASUS43 KFSD 161302
RWRFSD

WEATHER ROUNDUP FOR SE SOUTH DAKOTA/SW MINNESOTA/NW IOWA
NATIONAL WEATHER SERVICE SIOUX FALLS SD
800 AM CDT WED AUG 16 2017

NOTE: "FAIR" INDICATES FEW OR NO CLOUDS BELOW 12,000 FEET WITH NO
SIGNIFICANT WEATHER AND OR OBSTRUCTIONS TO VISIBILITY.


SDZ038>040-050-052>070-161400-
SOUTHEAST SOUTH DAKOTA

CITY           SKY/WX    TMP DP  RH WIND       PRES   REMARKS
BROOKINGS      CLOUDY    65  64  97 N3        29.84F
CHAMBERLAIN    CLOUDY    65  65 100 E3        29.84R
HURON          LGT RAIN  66  66 100 CALM      29.82R
MADISON        LGT RAIN  63  63 100 CALM      29.84F
MITCHELL       LGT RAIN  66  65  96 NE6       29.82R FOG
SIOUX FALLS    LGT RAIN  66  66 100 E5        29.84S FOG
WINNER         CLOUDY    67  65  93 W5        29.84R
YANKTON        LGT RAIN  65  64  97 NE3       29.82R
$$

MNZ071-072-080-081-089-090-097-098-161400-
SOUTHWEST MINNESOTA

CITY           SKY/WX    TMP DP  RH WIND       PRES   REMARKS
FAIRMONT       CLOUDY    66  65  96 SE5       29.90R FOG
JACKSON        FOG       64  64 100 CALM      29.90R VSB<1/4
MARSHALL       MOSUNNY   67  65  93 SE9       29.86R
MONTEVIDEO     CLOUDY    66  66 100 SE5       29.85F FOG
PIPESTONE      DRZL/FOG  66  64  94 SE5       29.86R VSB 1/2
REDWOOD FALLS  CLOUDY    66  64  93 SE10      29.86S FOG
TRACY          LGT RAIN  67  67  99 S6        29.87S
WINDOM         CLOUDY    66  64  94 SE7       29.88S FOG
WORTHINGTON    CLOUDY    66  66 100 SE6       29.87F FOG
$$

IAZ001>003-012>014-020>022-031-032-NEZ013-014-SDZ071-161400-
NORTHWEST IOWA

CITY           SKY/WX    TMP DP  RH WIND       PRES   REMARKS
CHEROKEE       LGT RAIN  68  68 100 E6        29.84S
DENISON        CLOUDY    70  70 100 E12G17    29.82S FOG
ESTHERVILLE    FOG       65  65 100 E7        29.88R VSB 1/4
LE MARS        RAIN      66  66 100 NE7       29.81F
ORANGE CITY    RAIN      68  68 100 CALM      29.85F
SHELDON        CLOUDY    66  66 100 E5        29.84S FOG
SIOUX CITY     RAIN      68  67  96 VRB6      29.81R FOG
SPENCER        FOG       68  67  96 E10       29.86F VSB 3/4
STORM LAKE     CLOUDY    68  68 100 E8        29.85S VSB<1/4
$$

ABBREVIATIONS USED IN REMARKS
   TC - TEMPERATURE IN CELSIUS
  WCI - WIND CHILL INDEX
   HX - HEAT INDEX
  VSB - VISIBILITY





USA.gov is the U.S. government's official web portal to all federal, state and local government web resources and services.